SB KEPS @ AMSAT $ORB15022.O Orbital Elements 15022.OSCAR
HR AMSAT ORBITAL ELEMENTS FOR OSCAR SATELLITES FROM WA5QGD FORT WORTH,TX January 22, 2015 BID: ORB15022.O TO ALL RADIO AMATEURS BT
Satellite: AO-07 Catalog number: 07530 Epoch time: 15021.49149419 Element set: 174 Inclination: 101.5028 deg RA of node: 001.3581 deg Eccentricity: 0.0011670 Arg of perigee: 228.2064 deg Mean anomaly: 245.5090 deg Mean motion: 12.53610988 rev/day Decay rate: -1.6e-07 rev/day^2 Epoch rev: 83887 Checksum: 279
Satellite: FO-29 Catalog number: 24278 Epoch time: 15021.22087016 Element set: 563 Inclination: 098.5236 deg RA of node: 010.0220 deg Eccentricity: 0.0351502 Arg of perigee: 091.9712 deg Mean anomaly: 335.0575 deg Mean motion: 13.53041483 rev/day Decay rate: -1.1e-07 rev/day^2 Epoch rev: 91015 Checksum: 256
Satellite: SO-33 Catalog number: 25509 Epoch time: 15021.36101034 Element set: 927 Inclination: 031.4358 deg RA of node: 003.9565 deg Eccentricity: 0.0348855 Arg of perigee: 226.2119 deg Mean anomaly: 288.3127 deg Mean motion: 14.29804074 rev/day Decay rate: 5.30e-06 rev/day^2 Epoch rev: 84839 Checksum: 300
Satellite: RS-22 Catalog number: 27939 Epoch time: 15022.41515525 Element set: 240 Inclination: 097.8218 deg RA of node: 190.9608 deg Eccentricity: 0.0013690 Arg of perigee: 127.8179 deg Mean anomaly: 232.4306 deg Mean motion: 14.65730767 rev/day Decay rate: 8.75e-06 rev/day^2 Epoch rev: 60483 Checksum: 317
Satellite: HO-68 Catalog number: 36122 Epoch time: 15022.16006353 Element set: 322 Inclination: 100.2177 deg RA of node: 072.0445 deg Eccentricity: 0.0007796 Arg of perigee: 094.1919 deg Mean anomaly: 266.0087 deg Mean motion: 13.16323009 rev/day Decay rate: -6.0e-07 rev/day^2 Epoch rev: 24524 Checksum: 263
Satellite: AO-73 Catalog number: 39444 Epoch time: 15022.18459665 Element set: 363 Inclination: 097.7493 deg RA of node: 090.2310 deg Eccentricity: 0.0059645 Arg of perigee: 250.6772 deg Mean anomaly: 108.7985 deg Mean motion: 14.79491725 rev/day Decay rate: 1.903e-05 rev/day^2 Epoch rev: 6182 Checksum: 338
Satellite: EO-79 Catalog number: 40025 Epoch time: 15022.31138094 Element set: 635 Inclination: 097.9648 deg RA of node: 282.3190 deg Eccentricity: 0.0012381 Arg of perigee: 307.6015 deg Mean anomaly: 052.4000 deg Mean motion: 14.86403173 rev/day Decay rate: 2.536e-05 rev/day^2 Epoch rev: 3212 Checksum: 266
/EX SB KEPS @ AMSAT $ORB15022.D Orbital Elements 15022.MICROS
HR AMSAT ORBITAL ELEMENTS FOR THE MICROSATS FROM WA5QGD FORT WORTH,TX January 22, 2015 BID: ORB15022.D TO ALL RADIO AMATEURS BT
Satellite: UO-11 Catalog number: 14781 Epoch time: 15021.20932957 Element set: 721 Inclination: 097.8225 deg RA of node: 081.7782 deg Eccentricity: 0.0008931 Arg of perigee: 181.8273 deg Mean anomaly: 178.2909 deg Mean motion: 14.82102269 rev/day Decay rate: 6.43e-06 rev/day^2 Epoch rev: 66025 Checksum: 309
Satellite: AO-16 Catalog number: 20439 Epoch time: 15022.09029118 Element set: 224 Inclination: 098.5292 deg RA of node: 320.5329 deg Eccentricity: 0.0010074 Arg of perigee: 227.5787 deg Mean anomaly: 199.2662 deg Mean motion: 14.32476324 rev/day Decay rate: 1.56e-06 rev/day^2 Epoch rev: 30582 Checksum: 293
Satellite: LO-19 Catalog number: 20442 Epoch time: 15021.33449428 Element set: 155 Inclination: 098.5004 deg RA of node: 319.7885 deg Eccentricity: 0.0011228 Arg of perigee: 218.1062 deg Mean anomaly: 141.9329 deg Mean motion: 14.32672164 rev/day Decay rate: 1.29e-06 rev/day^2 Epoch rev: 30591 Checksum: 285
Satellite: AO-27 Catalog number: 22825 Epoch time: 15021.12537418 Element set: 871 Inclination: 098.6916 deg RA of node: 331.3482 deg Eccentricity: 0.0008685 Arg of perigee: 027.0645 deg Mean anomaly: 094.2770 deg Mean motion: 14.29821795 rev/day Decay rate: 1.29e-06 rev/day^2 Epoch rev: 11192 Checksum: 311
Satellite: IO-26 Catalog number: 22826 Epoch time: 15022.17017030 Element set: 628 Inclination: 098.6857 deg RA of node: 332.5776 deg Eccentricity: 0.0009000 Arg of perigee: 015.9460 deg Mean anomaly: 344.2004 deg Mean motion: 14.30133297 rev/day Decay rate: 1.58e-06 rev/day^2 Epoch rev: 11221 Checksum: 264
Satellite: GO-32 Catalog number: 25397 Epoch time: 15022.19311278 Element set: 549 Inclination: 098.5016 deg RA of node: 337.3646 deg Eccentricity: 0.0002041 Arg of perigee: 066.1288 deg Mean anomaly: 024.9803 deg Mean motion: 14.23509331 rev/day Decay rate: 7.0e-07 rev/day^2 Epoch rev: 85902 Checksum: 289
Satellite: NO-44 Catalog number: 26931 Epoch time: 15021.23480278 Element set: 803 Inclination: 067.0507 deg RA of node: 196.1337 deg Eccentricity: 0.0006887 Arg of perigee: 268.1392 deg Mean anomaly: 091.8920 deg Mean motion: 14.30241503 rev/day Decay rate: 1.31e-06 rev/day^2 Epoch rev: 69478 Checksum: 299
Satellite: SO-50 Catalog number: 27607 Epoch time: 15022.49682126 Element set: 641 Inclination: 064.5572 deg RA of node: 283.5398 deg Eccentricity: 0.0071909 Arg of perigee: 317.3311 deg Mean anomaly: 042.2718 deg Mean motion: 14.74389835 rev/day Decay rate: 1.186e-05 rev/day^2 Epoch rev: 64980 Checksum: 326
Satellite: CO-55 Catalog number: 27844 Epoch time: 15021.55291214 Element set: 121 Inclination: 098.6977 deg RA of node: 032.1733 deg Eccentricity: 0.0009640 Arg of perigee: 011.1912 deg Mean anomaly: 153.8909 deg Mean motion: 14.21690235 rev/day Decay rate: 2.20e-06 rev/day^2 Epoch rev: 59960 Checksum: 287
Satellite: CO-57 Catalog number: 27848 Epoch time: 15021.02326125 Element set: 57 Inclination: 098.7072 deg RA of node: 031.4809 deg Eccentricity: 0.0009670 Arg of perigee: 019.9622 deg Mean anomaly: 038.3411 deg Mean motion: 14.21352417 rev/day Decay rate: 1.45e-06 rev/day^2 Epoch rev: 59944 Checksum: 293
Satellite: AO-51 Catalog number: 28375 Epoch time: 15021.37639949 Element set: 43 Inclination: 098.2783 deg RA of node: 326.1682 deg Eccentricity: 0.0083781 Arg of perigee: 053.7253 deg Mean anomaly: 307.1639 deg Mean motion: 14.41557949 rev/day Decay rate: 2.90e-06 rev/day^2 Epoch rev: 55534 Checksum: 335
Satellite: CP3 Catalog number: 31129 Epoch time: 15021.45145066 Element set: 952 Inclination: 097.9629 deg RA of node: 353.7787 deg Eccentricity: 0.0098396 Arg of perigee: 051.6815 deg Mean anomaly: 063.5985 deg Mean motion: 14.55367058 rev/day Decay rate: 1.189e-05 rev/day^2 Epoch rev: 41177 Checksum: 345
Satellite: CO-65 Catalog number: 32785 Epoch time: 15021.92903042 Element set: 172 Inclination: 097.6697 deg RA of node: 070.7776 deg Eccentricity: 0.0013855 Arg of perigee: 183.3914 deg Mean anomaly: 301.4991 deg Mean motion: 14.86262811 rev/day Decay rate: 1.395e-05 rev/day^2 Epoch rev: 36450 Checksum: 324
Satellite: PRISM Catalog number: 33493 Epoch time: 15022.35249950 Element set: 693 Inclination: 098.2515 deg RA of node: 212.7510 deg Eccentricity: 0.0017580 Arg of perigee: 088.1744 deg Mean anomaly: 272.1478 deg Mean motion: 14.91780429 rev/day Decay rate: 4.623e-05 rev/day^2 Epoch rev: 32482 Checksum: 306
Satellite: SOHLA-1 Catalog number: 33496 Epoch time: 15021.61397172 Element set: 567 Inclination: 098.1919 deg RA of node: 148.4611 deg Eccentricity: 0.0005134 Arg of perigee: 265.1267 deg Mean anomaly: 161.4492 deg Mean motion: 14.71152374 rev/day Decay rate: 4.45e-06 rev/day^2 Epoch rev: 32162 Checksum: 292
Satellite: TISAT-1 Catalog number: 36799 Epoch time: 15022.22071917 Element set: 862 Inclination: 098.0145 deg RA of node: 121.0633 deg Eccentricity: 0.0012386 Arg of perigee: 329.8213 deg Mean anomaly: 085.0090 deg Mean motion: 14.87380010 rev/day Decay rate: 2.994e-05 rev/day^2 Epoch rev: 24525 Checksum: 286
Satellite: STUDSAT Catalog number: 36801 Epoch time: 15021.90362454 Element set: 989 Inclination: 098.0520 deg RA of node: 134.1700 deg Eccentricity: 0.0006197 Arg of perigee: 274.0242 deg Mean anomaly: 200.5131 deg Mean motion: 15.04917514 rev/day Decay rate: 1.3792e-04 rev/day^2 Epoch rev: 24591 Checksum: 269
Satellite: ALMASAT-1 Catalog number: 38078 Epoch time: 15022.21201151 Element set: 277 Inclination: 069.4561 deg RA of node: 245.2239 deg Eccentricity: 0.0524552 Arg of perigee: 098.1383 deg Mean anomaly: 267.9587 deg Mean motion: 14.66461444 rev/day Decay rate: 3.1054e-04 rev/day^2 Epoch rev: 15354 Checksum: 302
Satellite: XATCOBEO Catalog number: 38082 Epoch time: 14243.34478676 Element set: 563 Inclination: 069.3815 deg RA of node: 097.0364 deg Eccentricity: 0.0033293 Arg of perigee: 225.1799 deg Mean anomaly: 135.4582 deg Mean motion: 16.41261006 rev/day Decay rate: 1.3583328e-01 rev/day^2 Epoch rev: 13623 Checksum: 317
Satellite: CUBEBUG-1 Catalog number: 39153 Epoch time: 15022.21871583 Element set: 808 Inclination: 098.0261 deg RA of node: 107.0127 deg Eccentricity: 0.0017298 Arg of perigee: 009.0398 deg Mean anomaly: 351.1121 deg Mean motion: 14.78649084 rev/day Decay rate: 1.311e-05 rev/day^2 Epoch rev: 9390 Checksum: 284
Satellite: ESTCUBE-1 Catalog number: 39161 Epoch time: 15022.35883935 Element set: 866 Inclination: 098.0828 deg RA of node: 106.5540 deg Eccentricity: 0.0010788 Arg of perigee: 062.4501 deg Mean anomaly: 297.7791 deg Mean motion: 14.70722353 rev/day Decay rate: 1.333e-05 rev/day^2 Epoch rev: 9180 Checksum: 306
Satellite: DUCHIFAT-1 Catalog number: 40021 Epoch time: 15022.40769493 Element set: 640 Inclination: 097.9659 deg RA of node: 282.5525 deg Eccentricity: 0.0013051 Arg of perigee: 306.9841 deg Mean anomaly: 053.0169 deg Mean motion: 14.86938442 rev/day Decay rate: 3.248e-05 rev/day^2 Epoch rev: 3213 Checksum: 293
Satellite: NANOSATCBR1 Catalog number: 40024 Epoch time: 15022.29604911 Element set: 627 Inclination: 097.9641 deg RA of node: 282.3422 deg Eccentricity: 0.0012260 Arg of perigee: 307.0011 deg Mean anomaly: 053.0064 deg Mean motion: 14.86663675 rev/day Decay rate: 3.097e-05 rev/day^2 Epoch rev: 3211 Checksum: 254
